Hourly Data Report for September 07, 2017

All times are specified in Local Standard Time (LST). Add 1 hour to adjust for Daylight Saving Time where and when it is observed.

NAPPAN AUTO
NOVA SCOTIA

45°45'34.400" N
64°14'29.200" W
19.80 m
8203702
71311
XNP

Download Data

Hourly Data (September 2017)
Hourly Data Report for September 7, 2017
Temp Definition
°C
Dew Point Temp Definition
°C
Rel Hum Definition
%
Wind Dir Definition
10's deg

Wind Spd Definition
km/h
Visibility Definition
km
Stn Press Definition
kPa
Hmdx Definition


Wind Chill Definition


Weather Definition


TIME
00:00 19.8 19.0 95 16 7   101.47     LegendNANA
01:00 20.4 19.5 94 17 15   101.36 28   LegendNANA
02:00 20.4 19.5 95 17 16   101.36 28   LegendNANA
03:00 20.8 19.8 94 17 15   101.29 28   LegendNANA
04:00 21.0 20.0 94 16 21   101.23 29   LegendNANA
05:00 20.8 19.7 94 16 22   101.14 28   LegendNANA
06:00 20.8 19.7 93 16 26   101.07 28   LegendNANA
07:00 21.1 19.9 93 17 21   101.00 29   LegendNANA
08:00 21.6 20.3 92 17 25   100.89 29   LegendNANA
09:00 22.0 20.5 91 17 26   100.84 30   LegendNANA
10:00 22.9 21.2 90 17 26   100.79 31   LegendNANA
11:00 22.3 21.1 93 17 23   100.76 31   LegendNANA
12:00 22.4 21.2 93 17 23   100.73 31   LegendNANA
13:00 21.9 21.1 96 20 15   100.62 30   LegendNANA
14:00 23.0 21.3 90 17 27   100.56 32   LegendNANA
15:00 22.6 21.0 91 17 30   100.52 31   LegendNANA
16:00 19.0 18.3 96 24 34   100.56     LegendNANA
17:00 18.8 18.2 97 23 16   100.65     LegendNANA
18:00 19.9 18.7 93 20 17   100.61     LegendNANA
19:00 17.3 16.3 94 23 12   100.67     LegendNANA
20:00 16.4 15.7 95 21 12   100.76     LegendNANA
21:00 15.9 15.0 95 19 10   100.81     LegendNANA
22:00 15.9 14.7 93 20 14   100.83     LegendNANA
23:00 15.7 14.6 93 20 16   100.84     LegendNANA

Notes on Data Quality.

Legend

  • E = Estimated
  • M = Missing
  • NA = Not Available
  • ‡ = Partner data that is not subject to review by the National Climate Archives
Date modified: